TimeMDT,TemperatureF,Dew PointF,Humidity,Sea Level PressureIn,VisibilityMPH,Wind Direction,Wind SpeedMPH,Gust SpeedMPH,PrecipitationIn,Events,Conditions,WindDirDegrees,DateUTC
12:15 AM,10.4,3.9,75,30.07,10.0,WNW,6.9,-,N/A,,Overcast,290,2013-03-24 06:15:00
12:35 AM,9.3,3.2,76,30.06,10.0,WNW,5.8,-,N/A,,Overcast,300,2013-03-24 06:35:00
12:55 AM,8.6,2.8,77,30.06,10.0,NW,5.8,-,N/A,,Scattered Clouds,320,2013-03-24 06:55:00
1:15 AM,6.8,1.2,78,30.05,10.0,NW,5.8,-,N/A,,Clear,320,2013-03-24 07:15:00
1:35 AM,5.7,0.9,80,30.06,10.0,West,6.9,-,N/A,,Clear,260,2013-03-24 07:35:00
1:55 AM,6.8,0.7,76,30.05,10.0,WSW,3.5,-,N/A,,Clear,240,2013-03-24 07:55:00
2:15 AM,5.7,-0.8,75,30.04,10.0,West,4.6,-,N/A,,Clear,260,2013-03-24 08:15:00
2:35 AM,3.2,-1.7,80,30.04,10.0,West,4.6,-,N/A,,Clear,270,2013-03-24 08:35:00
2:55 AM,3.7,-0.9,81,30.03,10.0,WNW,4.6,-,N/A,,Mostly Cloudy,300,2013-03-24 08:55:00
3:15 AM,3.4,-2.2,78,30.02,10.0,WNW,4.6,-,N/A,,Mostly Cloudy,290,2013-03-24 09:15:00
3:35 AM,4.5,-1.3,77,30.01,10.0,NW,5.8,-,N/A,,Clear,310,2013-03-24 09:35:00
3:55 AM,4.8,-2.6,72,30.00,10.0,NW,8.1,-,N/A,,Clear,310,2013-03-24 09:55:00
4:15 AM,4.3,-2.0,75,29.99,10.0,WNW,5.8,-,N/A,,Clear,300,2013-03-24 10:15:00
4:35 AM,4.8,-1.3,76,29.99,10.0,WNW,6.9,-,N/A,,Clear,290,2013-03-24 10:35:00
4:55 AM,4.6,-2.4,73,29.99,10.0,West,6.9,-,N/A,,Clear,280,2013-03-24 10:55:00
5:15 AM,3.6,-3.1,74,29.99,10.0,WNW,5.8,-,N/A,,Clear,290,2013-03-24 11:15:00
5:35 AM,5.0,-1.8,73,29.99,10.0,WNW,4.6,-,N/A,,Clear,290,2013-03-24 11:35:00
5:55 AM,5.9,-1.8,70,29.99,10.0,West,8.1,-,N/A,,Clear,280,2013-03-24 11:55:00
6:15 AM,5.4,-2.7,69,29.98,10.0,WNW,5.8,-,N/A,,Clear,300,2013-03-24 12:15:00
6:35 AM,3.9,-2.7,74,29.98,10.0,WNW,6.9,-,N/A,,Clear,300,2013-03-24 12:35:00
6:55 AM,2.8,-3.5,75,29.98,10.0,WNW,6.9,-,N/A,,Clear,300,2013-03-24 12:55:00
7:15 AM,3.9,-3.1,73,29.99,10.0,WNW,6.9,-,N/A,,Clear,300,2013-03-24 13:15:00
7:35 AM,7.3,-0.8,69,29.99,10.0,NW,5.8,-,N/A,,Clear,310,2013-03-24 13:35:00
7:55 AM,13.6,1.0,57,29.99,10.0,WSW,4.6,-,N/A,,Clear,240,2013-03-24 13:55:00
8:15 AM,15.4,1.0,53,29.99,10.0,SW,3.5,-,N/A,,Clear,220,2013-03-24 14:15:00
8:35 AM,17.8,1.4,49,29.99,10.0,SSW,4.6,-,N/A,,Clear,200,2013-03-24 14:35:00
8:55 AM,19.9,-0.0,42,29.99,10.0,Calm,Calm,-,N/A,,Clear,0,2013-03-24 14:55:00
9:15 AM,21.9,2.1,42,29.99,10.0,SSW,6.9,-,N/A,,Clear,200,2013-03-24 15:15:00
9:35 AM,23.4,2.8,41,29.99,10.0,SE,4.6,-,N/A,,Clear,140,2013-03-24 15:35:00
9:55 AM,25.3,-0.2,33,29.99,10.0,SE,4.6,-,N/A,,Clear,140,2013-03-24 15:55:00
10:15 AM,24.6,2.1,38,29.98,10.0,SSE,3.5,-,N/A,,Clear,150,2013-03-24 16:15:00
10:35 AM,25.9,7.5,46,29.99,10.0,ESE,4.6,-,N/A,,Clear,110,2013-03-24 16:35:00
10:55 AM,24.3,10.4,56,29.99,10.0,ESE,5.8,-,N/A,,Clear,110,2013-03-24 16:55:00
11:15 AM,25.3,10.0,52,29.98,10.0,East,11.5,16.1,N/A,,Clear,90,2013-03-24 17:15:00
11:35 AM,25.2,2.5,38,29.97,10.0,North,13.8,18.4,N/A,,Mostly Cloudy,360,2013-03-24 17:35:00
11:55 AM,28.2,2.1,33,29.97,10.0,North,17.3,24.2,N/A,,Mostly Cloudy,360,2013-03-24 17:55:00
12:15 PM,25.3,1.9,37,29.97,10.0,North,15.0,24.2,N/A,,Mostly Cloudy,350,2013-03-24 18:15:00
12:35 PM,26.6,2.5,36,29.97,10.0,North,16.1,20.7,N/A,,Overcast,350,2013-03-24 18:35:00
12:55 PM,25.5,3.6,39,29.97,10.0,North,12.7,19.6,N/A,,Overcast,360,2013-03-24 18:55:00
1:15 PM,25.3,3.9,40,29.97,10.0,North,16.1,24.2,N/A,,Overcast,360,2013-03-24 19:15:00
1:35 PM,24.3,8.1,50,29.98,10.0,North,15.0,23.0,N/A,,Mostly Cloudy,10,2013-03-24 19:35:00
1:55 PM,23.5,10.8,58,29.98,10.0,NNE,10.4,-,N/A,,Overcast,30,2013-03-24 19:55:00
2:15 PM,22.5,10.2,59,29.98,7.0,ENE,10.4,18.4,N/A,Snow,Light Snow,60,2013-03-24 20:15:00
2:35 PM,22.1,9.7,59,29.98,10.0,NE,6.9,-,N/A,,Overcast,50,2013-03-24 20:35:00
2:55 PM,20.3,8.8,61,29.98,7.0,NE,11.5,17.3,N/A,,Overcast,50,2013-03-24 20:55:00
3:15 PM,21.7,7.3,54,29.98,10.0,NE,9.2,-,N/A,,Overcast,50,2013-03-24 21:15:00
3:35 PM,20.3,6.8,56,29.98,10.0,NE,10.4,-,N/A,,Overcast,50,2013-03-24 21:35:00
3:55 PM,20.3,9.9,64,29.98,10.0,NE,12.7,17.3,N/A,,Overcast,40,2013-03-24 21:55:00
4:15 PM,20.7,7.9,58,29.99,10.0,NNE,12.7,-,N/A,,Overcast,20,2013-03-24 22:15:00
4:35 PM,20.7,8.4,59,29.99,10.0,North,11.5,17.3,N/A,,Overcast,10,2013-03-24 22:35:00
4:55 PM,20.8,7.7,57,30.00,10.0,North,15.0,20.7,N/A,,Overcast,10,2013-03-24 22:55:00
5:15 PM,20.5,8.1,59,30.00,10.0,North,15.0,20.7,N/A,,Overcast,360,2013-03-24 23:15:00
5:35 PM,20.5,7.3,57,30.00,10.0,North,16.1,21.9,N/A,,Overcast,360,2013-03-24 23:35:00
5:55 PM,19.4,8.1,61,30.01,10.0,North,17.3,20.7,N/A,,Mostly Cloudy,350,2013-03-24 23:55:00
6:15 PM,18.5,7.9,63,30.01,10.0,North,17.3,23.0,N/A,,Mostly Cloudy,350,2013-03-25 00:15:00
6:35 PM,17.8,8.4,67,30.02,10.0,NNW,12.7,21.9,N/A,,Scattered Clouds,340,2013-03-25 00:35:00
6:55 PM,17.2,8.1,67,30.02,10.0,North,12.7,-,N/A,,Clear,350,2013-03-25 00:55:00
7:15 PM,16.3,7.7,69,30.03,10.0,North,13.8,20.7,N/A,,Clear,350,2013-03-25 01:15:00
7:55 PM,15.1,7.3,71,30.04,10.0,NNW,11.5,-,N/A,,Clear,340,2013-03-25 01:55:00
8:15 PM,14.9,7.7,73,30.05,10.0,NNW,12.7,18.4,N/A,,Clear,340,2013-03-25 02:15:00
8:35 PM,14.5,7.5,74,30.06,10.0,NNW,11.5,-,N/A,,Clear,340,2013-03-25 02:35:00
8:55 PM,14.0,7.3,75,30.06,10.0,NNW,12.7,-,N/A,,Clear,340,2013-03-25 02:55:00
9:15 PM,14.0,7.2,74,30.08,10.0,NNW,11.5,-,N/A,,Clear,340,2013-03-25 03:15:00
9:35 PM,13.8,7.3,75,30.08,10.0,NNW,12.7,18.4,N/A,,Clear,340,2013-03-25 03:35:00
9:55 PM,13.8,8.4,79,30.09,10.0,NNW,10.4,16.1,N/A,Snow,Light Snow,340,2013-03-25 03:55:00
10:15 PM,13.1,8.4,82,30.09,10.0,NNW,9.2,-,N/A,,Clear,330,2013-03-25 04:15:00
10:35 PM,12.9,7.7,80,30.09,10.0,NNW,8.1,-,N/A,,Clear,340,2013-03-25 04:35:00
10:55 PM,13.1,7.7,79,30.09,10.0,NNW,10.4,17.3,N/A,,Clear,340,2013-03-25 04:55:00
11:15 PM,12.7,8.1,82,30.10,10.0,NNW,9.2,-,N/A,,Clear,340,2013-03-25 05:15:00
11:35 PM,12.0,7.7,83,30.10,10.0,NNW,5.8,-,N/A,,Clear,340,2013-03-25 05:35:00
11:55 PM,12.2,7.7,82,30.10,10.0,North,8.1,-,N/A,,Clear,350,2013-03-25 05:55:00